Weather History for KLEX - November, 2014

Change the Weather History Date:

Wednesday, November 5, 2014

  Actual Average Record
Temperature  
Mean Temperature 53 °F 51 °F  
Max Temperature 54 °F 60 °F 79 °F (1977)
Min Temperature 52 °F 41 °F 16 °F (1991)
Degree Days  
Heating Degree Days 12 15  
Month to date heating degree days 87 70  
Since 1 July heating degree days 335 396  
Cooling Degree Days 0 0  
Month to date cooling degree days 0 0  
Year to date cooling degree days 1274 1188  
Growing Degree Days 3 (Base 50)    
Moisture  
Dew Point 52 °F    
Average Humidity 97    
Maximum Humidity 100    
Minimum Humidity 93    
Precipitation  
Precipitation 0.42 in 0.11 in 2.07 in (1948)
Month to date precipitation 0.44 0.57  
Year to date precipitation 48.99 38.28  
Snow  
Snow 0.00 in 0.00 in T in (1995)
Month to date snowfall T 0.0  
Since 1 July snowfall T 0.0  
Since 1 September snowfall T 0.0  
Snow Depth 0.00 in    
Sea Level Pressure  
Sea Level Pressure 30.18 in    
Wind  
Wind Speed 5 mph (South)    
Max Wind Speed 12 mph    
Max Gust Speed 14 mph    
Visibility 4 miles    
Events Rain    
T = Trace of Precipitation, MM = Missing Value Source: NWS Daily Summary

Daily Weather History Graph

Daily Weather History Graph

Search for Another Location

Airport or City:

Trip Planner

Search our weather history database for the weather conditions in past years. The results will help you decide how hot, cold, wet, or windy it might be!

Date:

Astronomy

Nov. 05, 2014 Rise Set
Actual Time 7:08 AM EST 5:35 PM EST
Civil Twilight 6:40 AM EST 6:02 PM EST
Nautical Twilight 6:09 AM EST 6:33 PM EST
Astronomical Twilight 5:38 AM EST 7:04 PM EST
Moon 4:59 PM EST (11/5) 5:34 AM EST (11/5)
Length of Visible Light 11h 21m
Length of Day
10h 26m
Waxing Gibbous, 98% of the Moon is Illuminated
Nov 5
Waxing Gibbous
Nov 6
Full
Nov 14
Last Quarter
Nov 22
New
Nov 29
First Quarter

Hourly Weather History & Observations

Time (EST) Temp. Dew Point Humidity Pressure Visibility Wind Dir Wind Speed Gust Speed Precip Events Conditions
12:54 AM 54.0 °F 52.0 °F 93% 30.18 in 7.0 mi West 4.6 mph - 0.00 in Rain Light Rain
1:54 AM 53.1 °F 52.0 °F 96% 30.18 in 5.0 mi South 5.8 mph - 0.02 in Rain Light Rain
2:54 AM 53.1 °F 52.0 °F 96% 30.18 in 5.0 mi SSW 4.6 mph - 0.02 in Rain Light Rain
3:44 AM 53.1 °F 52.0 °F 96% 30.19 in 2.5 mi WSW 3.5 mph - 0.00 in Rain Light Rain
3:54 AM 53.1 °F 52.0 °F 96% 30.19 in 1.8 mi SSW 3.5 mph - 0.01 in Rain Light Rain
4:07 AM 53.1 °F 52.0 °F 96% 30.20 in 2.0 mi SSW 5.8 mph - 0.01 in Rain Light Rain
4:09 AM 53.1 °F 52.0 °F 96% 30.20 in 2.0 mi SSW 4.6 mph - 0.01 in Rain Light Rain
4:46 AM 53.1 °F 52.0 °F 96% 30.20 in 2.5 mi Calm Calm - 0.04 in Rain Light Rain
4:54 AM 53.1 °F 52.0 °F 96% 30.19 in 2.5 mi SSW 3.5 mph - 0.04 in Rain Light Rain
5:23 AM 53.1 °F 52.0 °F 96% 30.20 in 2.0 mi Calm Calm - 0.02 in Rain Light Rain
5:37 AM 53.1 °F 52.0 °F 96% 30.20 in 1.5 mi South 4.6 mph - 0.03 in Rain Light Rain
5:52 AM 53.6 °F 51.8 °F 94% 30.21 in 2.0 mi Calm Calm - 0.05 in Rain Light Rain
5:54 AM 53.1 °F 52.0 °F 96% 30.21 in 2.0 mi Calm Calm - 0.05 in Rain Light Rain
6:26 AM 53.1 °F 52.0 °F 96% 30.21 in 3.0 mi Calm Calm - 0.04 in Rain Light Rain
6:47 AM 53.1 °F 52.0 °F 96% 30.21 in 2.5 mi Calm Calm - 0.05 in Rain Light Rain
6:54 AM 53.1 °F 52.0 °F 96% 30.21 in 2.5 mi North 4.6 mph - 0.05 in Rain Light Rain
7:08 AM 53.1 °F 52.0 °F 96% 30.22 in 3.0 mi NNE 3.5 mph - 0.01 in Rain Light Rain
7:18 AM 53.1 °F 52.0 °F 96% 30.22 in 4.0 mi NE 4.6 mph - 0.02 in Rain Light Rain
7:26 AM 53.1 °F 52.0 °F 96% 30.22 in 4.0 mi ENE 5.8 mph - 0.03 in Rain Light Rain
7:52 AM 53.6 °F 51.8 °F 94% 30.23 in 2.0 mi SE 4.6 mph - 0.06 in Rain Rain
7:54 AM 53.1 °F 52.0 °F 96% 30.23 in 2.5 mi SE 4.6 mph - 0.06 in Rain Rain
8:01 AM 53.1 °F 52.0 °F 96% 30.23 in 2.5 mi ESE 5.8 mph - 0.01 in Rain Light Rain
8:13 AM 53.1 °F 52.0 °F 96% 30.23 in 3.0 mi SE 4.6 mph - 0.02 in Rain Light Rain
8:38 AM 53.1 °F 52.0 °F 96% 30.23 in 4.0 mi SSE 5.8 mph - 0.02 in   Overcast
8:54 AM 53.1 °F 52.0 °F 96% 30.23 in 4.0 mi South 5.8 mph - 0.02 in   Overcast
9:05 AM 53.1 °F 52.0 °F 96% 30.23 in 4.0 mi South 5.8 mph - N/A   Overcast
9:51 AM 53.6 °F 51.8 °F 94% 30.24 in 5.0 mi South 9.2 mph - N/A   Overcast
9:54 AM 53.1 °F 52.0 °F 96% 30.25 in 5.0 mi South 8.1 mph - N/A   Overcast
10:54 AM 53.1 °F 51.1 °F 93% 30.24 in 6.0 mi SSE 5.8 mph - 0.00 in   Overcast
11:33 AM 53.1 °F 51.1 °F 93% 30.23 in 8.0 mi South 9.2 mph - N/A   Overcast
11:54 AM 53.1 °F 51.1 °F 93% 30.21 in 8.0 mi South 9.2 mph - N/A   Overcast
12:54 PM 53.1 °F 51.1 °F 93% 30.19 in 8.0 mi South 4.6 mph - N/A   Overcast
1:54 PM 53.1 °F 51.1 °F 93% 30.17 in 10.0 mi South 6.9 mph - N/A   Overcast
2:54 PM 53.1 °F 51.1 °F 93% 30.17 in 10.0 mi SSE 4.6 mph - N/A   Overcast
3:54 PM 53.1 °F 51.1 °F 93% 30.15 in 10.0 mi South 4.6 mph - N/A   Overcast
4:54 PM 53.1 °F 51.1 °F 93% 30.14 in 9.0 mi SSE 5.8 mph - 0.00 in Rain Light Rain
5:54 PM 53.1 °F 51.1 °F 93% 30.13 in 6.0 mi SSE 5.8 mph - 0.02 in Rain Light Rain
6:54 PM 53.1 °F 52.0 °F 96% 30.14 in 5.0 mi South 6.9 mph - 0.03 in Rain Light Rain
7:54 PM 52.0 °F 52.0 °F 100% 30.12 in 5.0 mi South 5.8 mph - 0.06 in Rain Light Rain
8:08 PM 52.0 °F 52.0 °F 100% 30.12 in 5.0 mi South 4.6 mph - 0.01 in Rain Light Rain
8:54 PM 52.0 °F 52.0 °F 100% 30.11 in 6.0 mi Calm Calm - 0.03 in Rain Light Rain
9:54 PM 52.0 °F 51.1 °F 97% 30.09 in 5.0 mi South 4.6 mph - 0.01 in   Overcast
10:54 PM 52.0 °F 52.0 °F 100% 30.09 in 6.0 mi SW 5.8 mph - N/A   Overcast
11:24 PM 52.0 °F 52.0 °F 100% 30.07 in 2.0 mi SSW 8.1 mph - N/A   Overcast
11:33 PM 52.0 °F 52.0 °F 100% 30.06 in 1.2 mi SSW 8.1 mph - N/A   Overcast
11:54 PM 52.0 °F 52.0 °F 100% 30.05 in 1.2 mi SSW 8.1 mph - N/A   Overcast